RADUGA 10 [-]

Last updated on Aug. 10, 2020, 5:34 a.m. UTC

1 12897U 81102A   20222.73799416 -.00000168  00000-0  00000-0 0  9999
2 12897  11.4825 316.1264 0004324 146.8126 204.7113  1.00287185 95907
UTC
Height (km)
Latitude
Longitude
Inclination
Orbital Period
UTC large
Height (km)
Speed (km/s)
/
Latitude / Longitude
Inclination (degrees)
Orbital Period (minutes)
Azimuth
Elevation
Range (km)
Doppler Factor
iOS Compass Heading
iOS Angle

Next 30 passes for location: Hong Kong

Rise time Rise Azimuth (degrees) Set time Set Azimuth (degrees) Duration Max altitude (degrees)

No matching passes for this satellites